Location: Grasslands National Park East Block
(49.0708°N, 106.5295°W)
Time: 21:45:35
(UTC-06:00)

Vanguard 1 Rocket - Pass Details

Date: 27 September 2019
Orbit: 650 x 4226 km, 34.3° (Epoch: 13 October)

Event Time Altitude Azimuth Distance (km) Brightness Sun altitude
Rises 14:45:22 0° 201° (SSW) 8,081 13.2 34.0°
Reaches altitude 10° 14:52:08 10° 192° (SSW) 7,305 13.1 33.4°
Maximum altitude 15:11:35 29° 143° (SE) 5,765 11.9 31.4°
Drops below altitude 10° 15:28:00 10° 94° (E) 6,245 11.4 29.6°
Sets 15:33:00 0° 84° (E) 6,803 11.4 29.0°
